Chippewa, MI

12:09 PM EDT on October 17, 2019 (GMT -0400)
Chippewa County International

Weather History for KCIU - August, 2019

Change the Weather History Date:

Monday, August 26, 2019

  Actual Average Record
Temperature  
Mean Temperature 66 °F -  
Max Temperature 75 °F 75 °F 86 °F (1993)
Min Temperature 59 °F 51 °F 36 °F (1984)
Cooling Degree Days 1    
Growing Degree Days 16 (Base 50)    
Moisture  
Dew Point 59 °F    
Average Humidity 78    
Maximum Humidity 97    
Minimum Humidity 50    
Precipitation  
Precipitation 0.01 in - - ()
Sea Level Pressure  
Sea Level Pressure 29.96 in    
Wind  
Wind Speed 13 mph ()    
Max Wind Speed 28 mph    
Max Gust Speed 37 mph    
Visibility 10.0 miles    
Events Rain    
Averages and records for this station are not official NWS values.
T = Trace of Precipitation, MM = Missing Value Source: Averaged Metar Reports

Daily Weather History Graph

Daily Weather History Graph

Search for Another Location

Airport or City:

Astronomy

Aug. 26, 2019 Rise Set
Actual Time 6:50 AM EDT 8:28 PM EDT
Civil Twilight 6:18 AM EDT 8:59 PM EDT
Nautical Twilight 5:40 AM EDT 9:37 PM EDT
Astronomical Twilight 4:58 AM EDT 10:19 PM EDT
Moon 2:02 AM EDT (8/26) 6:03 PM EDT (8/26)
Length of Visible Light 14h 40m
Length of Day
13h 37m
Waning Crescent, 19% of the Moon is Illuminated
Aug 26
Waning Crescent
Aug 30
New
Sep 5
First Quarter
Sep 14
Full
Sep 21
Last Quarter

Hourly Weather History & Observations

Time (EDT) Temp. Dew Point Humidity Pressure Visibility Wind Dir Wind Speed Gust Speed Precip Events Conditions
12:56 AM 60.1 °F 57.9 °F 93% 30.13 in 10.0 mi SE 10.4 mph - N/A   Clear
1:56 AM 59.0 °F 57.9 °F 96% 30.13 in 10.0 mi SE 6.9 mph - N/A   Clear
2:56 AM 60.1 °F 57.9 °F 93% 30.12 in 10.0 mi SE 8.1 mph - N/A   Clear
3:56 AM 60.1 °F 57.9 °F 93% 30.11 in 10.0 mi SE 6.9 mph - N/A   Clear
4:56 AM 60.1 °F 57.9 °F 93% 30.10 in 10.0 mi SE 9.2 mph - N/A   Clear
5:56 AM 60.1 °F 59.0 °F 96% 30.09 in 10.0 mi SE 8.1 mph - N/A   Clear
6:56 AM 61.0 °F 60.1 °F 97% 30.08 in 10.0 mi SE 10.4 mph - N/A   Clear
7:56 AM 62.1 °F 60.1 °F 93% 30.07 in 10.0 mi SE 11.5 mph - N/A   Clear
8:56 AM 63.0 °F 61.0 °F 93% 30.06 in 10.0 mi SE 11.5 mph - N/A   Clear
9:05 AM 64.4 °F 60.8 °F 88% 30.06 in 10.0 mi SE 11.5 mph - N/A   Partly Cloudy
9:56 AM 66.0 °F 62.1 °F 87% 30.04 in 10.0 mi SE 15.0 mph - N/A   Mostly Cloudy
10:41 AM 69.8 °F 60.8 °F 73% 30.04 in 10.0 mi SSE 18.4 mph - N/A   Mostly Cloudy
10:56 AM 71.1 °F 60.1 °F 68% 30.03 in 10.0 mi SE 18.4 mph - N/A   Mostly Cloudy
11:09 AM 71.6 °F 60.8 °F 69% 30.03 in 10.0 mi SSE 19.6 mph 23.0 mph N/A   Mostly Cloudy
11:56 AM 73.0 °F 57.9 °F 59% 30.01 in 10.0 mi SE 19.6 mph 25.3 mph N/A   Mostly Cloudy
12:56 PM 73.0 °F 54.0 °F 51% 29.98 in 10.0 mi SSE 23.0 mph 33.4 mph N/A   Mostly Cloudy
1:56 PM 73.0 °F 55.0 °F 53% 29.96 in 10.0 mi SE 26.5 mph 32.2 mph N/A   Scattered Clouds
2:56 PM 73.9 °F 54.0 °F 50% 29.94 in 10.0 mi SE 26.5 mph 36.8 mph N/A   Partly Cloudy
3:56 PM 72.0 °F 55.0 °F 55% 29.92 in 10.0 mi SE 23.0 mph 33.4 mph N/A   Mostly Cloudy
4:56 PM 71.1 °F 55.9 °F 59% 29.90 in 10.0 mi SE 26.5 mph 32.2 mph N/A   Clear
5:56 PM 70.0 °F 55.0 °F 59% 29.88 in 10.0 mi SE 27.6 mph 35.7 mph N/A   Clear
6:56 PM 69.1 °F 55.0 °F 61% 29.86 in 10.0 mi SE 21.9 mph 28.8 mph N/A   Clear
7:56 PM 68.0 °F 55.9 °F 65% 29.83 in 10.0 mi SE 18.4 mph 27.6 mph N/A   Clear
8:56 PM 68.0 °F 57.9 °F 70% 29.81 in 10.0 mi SE 23.0 mph 33.4 mph N/A   Mostly Cloudy
9:56 PM 68.0 °F 59.0 °F 73% 29.79 in 10.0 mi SE 24.2 mph 29.9 mph 0.00 in Rain Light Rain
10:56 PM 64.0 °F 62.1 °F 93% 29.76 in 10.0 mi SE 20.7 mph 28.8 mph 0.01 in Rain Light Rain
11:03 PM 64.4 °F 62.6 °F 94% 29.77 in 10.0 mi SE 20.7 mph 28.8 mph 0.00 in   Overcast
11:35 PM 64.4 °F 62.6 °F 94% 29.75 in 10.0 mi SE 24.2 mph 32.2 mph 0.00 in Rain Light Rain
11:56 PM 63.0 °F 62.1 °F 97% 29.73 in 9.0 mi SE 23.0 mph 31.1 mph 0.00 in Rain Light Rain